Year,Month,Day,Hour,Minute,Value (Times are PST for insolation in W/m^2)
2018,06,11,00,00,0.00
2018,06,11,00,01,0.00
2018,06,11,00,02,0.00
2018,06,11,00,03,0.00
2018,06,11,00,04,0.00
2018,06,11,00,05,0.00
2018,06,11,00,06,0.00
2018,06,11,00,07,0.00
2018,06,11,00,08,0.00
2018,06,11,00,09,0.00
2018,06,11,00,10,0.00
2018,06,11,00,11,0.00
2018,06,11,00,12,0.00
2018,06,11,00,13,0.00
2018,06,11,00,14,0.00
2018,06,11,00,15,0.00
2018,06,11,00,16,0.00
2018,06,11,00,17,0.00
2018,06,11,00,18,0.00
2018,06,11,00,19,0.00
2018,06,11,00,20,0.00
2018,06,11,00,21,0.00
2018,06,11,00,22,0.00
2018,06,11,00,23,0.00
2018,06,11,00,24,0.00
2018,06,11,00,25,0.00
2018,06,11,00,26,0.00
2018,06,11,00,27,0.00
2018,06,11,00,28,0.00
2018,06,11,00,29,0.00
2018,06,11,00,30,0.00
2018,06,11,00,31,0.00
2018,06,11,00,32,0.00
2018,06,11,00,33,0.00
2018,06,11,00,34,0.00
2018,06,11,00,35,0.00
2018,06,11,00,36,0.00
2018,06,11,00,37,0.00
2018,06,11,00,38,0.00
2018,06,11,00,39,0.00
2018,06,11,00,40,0.00
2018,06,11,00,41,0.00
2018,06,11,00,42,0.00
2018,06,11,00,43,0.00
2018,06,11,00,44,0.00
2018,06,11,00,45,0.00
2018,06,11,00,46,0.00
2018,06,11,00,47,0.00
2018,06,11,00,48,0.00
2018,06,11,00,49,0.00
2018,06,11,00,50,0.00
2018,06,11,00,51,0.00
2018,06,11,00,52,0.00
2018,06,11,00,53,0.00
2018,06,11,00,54,0.00
2018,06,11,00,55,0.00
2018,06,11,00,56,0.00
2018,06,11,00,57,0.00
2018,06,11,00,58,0.00
2018,06,11,00,59,0.00
2018,06,11,01,00,0.00
2018,06,11,01,01,0.00
2018,06,11,01,02,0.00
2018,06,11,01,03,0.00
2018,06,11,01,04,0.00
2018,06,11,01,05,0.00
2018,06,11,01,06,0.00
2018,06,11,01,07,0.00
2018,06,11,01,08,0.00
2018,06,11,01,09,0.00
2018,06,11,01,10,0.00
2018,06,11,01,11,0.00
2018,06,11,01,12,0.00
2018,06,11,01,13,0.00
2018,06,11,01,14,0.00
2018,06,11,01,15,0.00
2018,06,11,01,16,0.00
2018,06,11,01,17,0.00
2018,06,11,01,18,0.00
2018,06,11,01,19,0.00
2018,06,11,01,20,0.00
2018,06,11,01,21,0.00
2018,06,11,01,22,0.00
2018,06,11,01,23,0.00
2018,06,11,01,24,0.00
2018,06,11,01,25,0.00
2018,06,11,01,26,0.00
2018,06,11,01,27,0.00
2018,06,11,01,28,0.00
2018,06,11,01,29,0.00
2018,06,11,01,30,0.00
2018,06,11,01,31,0.00
2018,06,11,01,32,0.00
2018,06,11,01,33,0.00
2018,06,11,01,34,0.00
2018,06,11,01,35,0.00
2018,06,11,01,36,0.00
2018,06,11,01,37,0.00
2018,06,11,01,38,0.00
2018,06,11,01,39,0.00
2018,06,11,01,40,0.00
2018,06,11,01,41,0.00
2018,06,11,01,42,0.00
2018,06,11,01,43,0.00
2018,06,11,01,44,0.00
2018,06,11,01,45,0.00
2018,06,11,01,46,0.00
2018,06,11,01,47,0.00
2018,06,11,01,48,0.00
2018,06,11,01,49,0.00
2018,06,11,01,50,0.00
2018,06,11,01,51,0.00
2018,06,11,01,52,0.00
2018,06,11,01,53,0.00
2018,06,11,01,54,0.00
2018,06,11,01,55,0.00
2018,06,11,01,56,0.00
2018,06,11,01,57,0.00
2018,06,11,01,58,0.00
2018,06,11,01,59,0.00
2018,06,11,02,00,0.00
2018,06,11,02,01,0.00
2018,06,11,02,02,0.00
2018,06,11,02,03,0.00
2018,06,11,02,04,0.00
2018,06,11,02,05,0.00
2018,06,11,02,06,0.00
2018,06,11,02,07,0.00
2018,06,11,02,08,0.00
2018,06,11,02,09,0.00
2018,06,11,02,10,0.00
2018,06,11,02,11,0.00
2018,06,11,02,12,0.00
2018,06,11,02,13,0.00
2018,06,11,02,14,0.00
2018,06,11,02,15,0.00
2018,06,11,02,16,0.00
2018,06,11,02,17,0.00
2018,06,11,02,18,0.00
2018,06,11,02,19,0.00
2018,06,11,02,20,0.00
2018,06,11,02,21,0.00
2018,06,11,02,22,0.00
2018,06,11,02,23,0.00
2018,06,11,02,24,0.00
2018,06,11,02,25,0.00
2018,06,11,02,26,0.00
2018,06,11,02,27,0.00
2018,06,11,02,28,0.00
2018,06,11,02,29,0.00
2018,06,11,02,30,0.00
2018,06,11,02,31,0.00
2018,06,11,02,32,0.00
2018,06,11,02,33,0.00
2018,06,11,02,34,0.00
2018,06,11,02,35,0.00
2018,06,11,02,36,0.00
2018,06,11,02,37,0.00
2018,06,11,02,38,0.00
2018,06,11,02,39,0.00
2018,06,11,02,40,0.00
2018,06,11,02,41,0.00
2018,06,11,02,42,0.00
2018,06,11,02,43,0.00
2018,06,11,02,44,0.00
2018,06,11,02,45,0.00
2018,06,11,02,46,0.00
2018,06,11,02,47,0.00
2018,06,11,02,48,0.00
2018,06,11,02,49,0.00
2018,06,11,02,50,0.00
2018,06,11,02,51,0.00
2018,06,11,02,52,0.00
2018,06,11,02,53,0.00
2018,06,11,02,54,0.00
2018,06,11,02,55,0.00
2018,06,11,02,56,0.00
2018,06,11,02,57,0.00
2018,06,11,02,58,0.00
2018,06,11,02,59,0.00
2018,06,11,03,00,0.00
2018,06,11,03,01,0.00
2018,06,11,03,02,0.00
2018,06,11,03,03,0.00
2018,06,11,03,04,0.00
2018,06,11,03,05,0.00
2018,06,11,03,06,0.00
2018,06,11,03,07,0.00
2018,06,11,03,08,0.00
2018,06,11,03,09,0.00
2018,06,11,03,10,0.00
2018,06,11,03,11,0.00
2018,06,11,03,12,0.00
2018,06,11,03,13,0.00
2018,06,11,03,14,0.00
2018,06,11,03,15,0.00
2018,06,11,03,16,0.00
2018,06,11,03,17,0.00
2018,06,11,03,18,0.00
2018,06,11,03,19,0.00
2018,06,11,03,20,0.00
2018,06,11,03,21,0.00
2018,06,11,03,22,0.00
2018,06,11,03,23,0.00
2018,06,11,03,24,0.00
2018,06,11,03,25,0.00
2018,06,11,03,26,0.00
2018,06,11,03,27,0.00
2018,06,11,03,28,0.00
2018,06,11,03,29,0.00
2018,06,11,03,30,0.00
2018,06,11,03,31,0.00
2018,06,11,03,32,0.00
2018,06,11,03,33,0.00
2018,06,11,03,34,0.00
2018,06,11,03,35,0.00
2018,06,11,03,36,0.00
2018,06,11,03,37,0.00
2018,06,11,03,38,0.00
2018,06,11,03,39,0.00
2018,06,11,03,40,0.00
2018,06,11,03,41,0.00
2018,06,11,03,42,0.00
2018,06,11,03,43,0.00
2018,06,11,03,44,0.00
2018,06,11,03,45,0.00
2018,06,11,03,46,0.00
2018,06,11,03,47,0.00
2018,06,11,03,48,0.00
2018,06,11,03,49,0.00
2018,06,11,03,50,0.00
2018,06,11,03,51,0.00
2018,06,11,03,52,0.00
2018,06,11,03,53,0.00
2018,06,11,03,54,0.00
2018,06,11,03,55,0.00
2018,06,11,03,56,0.00
2018,06,11,03,57,0.00
2018,06,11,03,58,0.00
2018,06,11,03,59,0.00
2018,06,11,04,00,0.00
2018,06,11,04,01,0.00
2018,06,11,04,02,0.00
2018,06,11,04,03,0.00
2018,06,11,04,04,0.00
2018,06,11,04,05,0.00
2018,06,11,04,06,0.00
2018,06,11,04,07,0.00
2018,06,11,04,08,0.00
2018,06,11,04,09,0.00
2018,06,11,04,10,0.00
2018,06,11,04,11,0.00
2018,06,11,04,12,0.00
2018,06,11,04,13,0.00
2018,06,11,04,14,0.00
2018,06,11,04,15,0.00
2018,06,11,04,16,0.00
2018,06,11,04,17,0.00
2018,06,11,04,18,0.00
2018,06,11,04,19,0.00
2018,06,11,04,20,0.00
2018,06,11,04,21,0.00
2018,06,11,04,22,0.00
2018,06,11,04,23,0.00
2018,06,11,04,24,0.00
2018,06,11,04,25,0.00
2018,06,11,04,26,0.00
2018,06,11,04,27,0.00
2018,06,11,04,28,0.00
2018,06,11,04,29,0.00
2018,06,11,04,30,0.00
2018,06,11,04,31,0.00
2018,06,11,04,32,0.00
2018,06,11,04,33,0.00
2018,06,11,04,34,0.00
2018,06,11,04,35,0.00
2018,06,11,04,36,0.00
2018,06,11,04,37,0.00
2018,06,11,04,38,0.00
2018,06,11,04,39,0.00
2018,06,11,04,40,0.00
2018,06,11,04,41,0.00
2018,06,11,04,42,0.00
2018,06,11,04,43,0.00
2018,06,11,04,44,0.00
2018,06,11,04,45,0.00
2018,06,11,04,46,0.00
2018,06,11,04,47,0.00
2018,06,11,04,48,0.00
2018,06,11,04,49,0.00
2018,06,11,04,50,0.00
2018,06,11,04,51,0.00
2018,06,11,04,52,0.00
2018,06,11,04,53,0.00
2018,06,11,04,54,0.00
2018,06,11,04,55,0.00
2018,06,11,04,56,0.00
2018,06,11,04,57,0.00
2018,06,11,04,58,0.00
2018,06,11,04,59,0.00
2018,06,11,05,00,0.00
2018,06,11,05,01,0.00
2018,06,11,05,02,0.00
2018,06,11,05,03,0.00
2018,06,11,05,04,0.00
2018,06,11,05,05,0.00
2018,06,11,05,06,0.00
2018,06,11,05,07,0.00
2018,06,11,05,08,0.00
2018,06,11,05,09,0.00
2018,06,11,05,10,0.00
2018,06,11,05,11,0.00
2018,06,11,05,12,0.00
2018,06,11,05,13,0.00
2018,06,11,05,14,0.00
2018,06,11,05,15,0.00
2018,06,11,05,16,0.00
2018,06,11,05,17,0.00
2018,06,11,05,18,0.00
2018,06,11,05,19,0.00
2018,06,11,05,20,0.00
2018,06,11,05,21,0.00
2018,06,11,05,22,0.00
2018,06,11,05,23,0.00
2018,06,11,05,24,0.00
2018,06,11,05,25,0.00
2018,06,11,05,26,0.00
2018,06,11,05,27,0.00
2018,06,11,05,28,0.00
2018,06,11,05,29,5.00
2018,06,11,05,30,5.00
2018,06,11,05,31,5.00
2018,06,11,05,32,5.00
2018,06,11,05,33,5.00
2018,06,11,05,34,5.00
2018,06,11,05,35,5.00
2018,06,11,05,36,5.00
2018,06,11,05,37,5.00
2018,06,11,05,38,5.00
2018,06,11,05,39,5.00
2018,06,11,05,40,6.20
2018,06,11,05,41,7.00
2018,06,11,05,42,7.00
2018,06,11,05,43,7.00
2018,06,11,05,44,7.40
2018,06,11,05,45,9.00
2018,06,11,05,46,10.00
2018,06,11,05,47,11.00
2018,06,11,05,48,11.00
2018,06,11,05,49,11.00
2018,06,11,05,50,12.00
2018,06,11,05,51,12.00
2018,06,11,05,52,12.00
2018,06,11,05,53,12.00
2018,06,11,05,54,11.40
2018,06,11,05,55,11.00
2018,06,11,05,56,11.00
2018,06,11,05,57,11.00
2018,06,11,05,58,11.20
2018,06,11,05,59,12.00
2018,06,11,06,00,12.90
2018,06,11,06,01,15.20
2018,06,11,06,02,16.00
2018,06,11,06,03,16.00
2018,06,11,06,04,16.00
2018,06,11,06,05,16.00
2018,06,11,06,06,16.00
2018,06,11,06,07,16.00
2018,06,11,06,08,16.00
2018,06,11,06,09,16.00
2018,06,11,06,10,17.70
2018,06,11,06,11,19.20
2018,06,11,06,12,21.00
2018,06,11,06,13,21.70
2018,06,11,06,14,23.00
2018,06,11,06,15,23.00
2018,06,11,06,16,24.50
2018,06,11,06,17,25.00
2018,06,11,06,18,25.00
2018,06,11,06,19,25.20
2018,06,11,06,20,25.60
2018,06,11,06,21,25.00
2018,06,11,06,22,23.80
2018,06,11,06,23,23.00
2018,06,11,06,24,21.30
2018,06,11,06,25,21.00
2018,06,11,06,26,21.00
2018,06,11,06,27,21.70
2018,06,11,06,28,22.00
2018,06,11,06,29,19.80
2018,06,11,06,30,18.30
2018,06,11,06,31,18.00
2018,06,11,06,32,18.30
2018,06,11,06,33,20.30
2018,06,11,06,34,18.00
2018,06,11,06,35,18.00
2018,06,11,06,36,19.90
2018,06,11,06,37,18.80
2018,06,11,06,38,16.30
2018,06,11,06,39,16.20
2018,06,11,06,40,18.00
2018,06,11,06,41,19.80
2018,06,11,06,42,23.00
2018,06,11,06,43,23.00
2018,06,11,06,44,23.00
2018,06,11,06,45,23.00
2018,06,11,06,46,22.80
2018,06,11,06,47,21.00
2018,06,11,06,48,21.70
2018,06,11,06,49,24.00
2018,06,11,06,50,23.80
2018,06,11,06,51,24.40
2018,06,11,06,52,25.00
2018,06,11,06,53,25.00
2018,06,11,06,54,25.00
2018,06,11,06,55,25.00
2018,06,11,06,56,25.00
2018,06,11,06,57,25.00
2018,06,11,06,58,25.00
2018,06,11,06,59,25.00
2018,06,11,07,00,25.00
2018,06,11,07,01,25.00
2018,06,11,07,02,25.40
2018,06,11,07,03,26.00
2018,06,11,07,04,26.00
2018,06,11,07,05,26.00
2018,06,11,07,06,26.00
2018,06,11,07,07,26.00
2018,06,11,07,08,26.00
2018,06,11,07,09,26.00
2018,06,11,07,10,26.00
2018,06,11,07,11,26.00
2018,06,11,07,12,26.00
2018,06,11,07,13,27.70
2018,06,11,07,14,28.00
2018,06,11,07,15,28.00
2018,06,11,07,16,28.00
2018,06,11,07,17,28.00
2018,06,11,07,18,28.00
2018,06,11,07,19,28.00
2018,06,11,07,20,28.00
2018,06,11,07,21,28.00
2018,06,11,07,22,28.00
2018,06,11,07,23,28.00
2018,06,11,07,24,29.00
2018,06,11,07,25,30.00
2018,06,11,07,26,30.00
2018,06,11,07,27,30.00
2018,06,11,07,28,30.00
2018,06,11,07,29,30.00
2018,06,11,07,30,30.00
2018,06,11,07,31,30.00
2018,06,11,07,32,30.00
2018,06,11,07,33,30.00
2018,06,11,07,34,30.00
2018,06,11,07,35,30.00
2018,06,11,07,36,30.00
2018,06,11,07,37,30.00
2018,06,11,07,38,30.00
2018,06,11,07,39,30.00
2018,06,11,07,40,31.40
2018,06,11,07,41,30.30
2018,06,11,07,42,32.00
2018,06,11,07,43,32.00
2018,06,11,07,44,32.00
2018,06,11,07,45,32.00
2018,06,11,07,46,32.00
2018,06,11,07,47,32.00
2018,06,11,07,48,32.00
2018,06,11,07,49,32.00
2018,06,11,07,50,32.00
2018,06,11,07,51,32.00
2018,06,11,07,52,32.00
2018,06,11,07,53,32.60
2018,06,11,07,54,32.30
2018,06,11,07,55,32.00
2018,06,11,07,56,33.00
2018,06,11,07,57,33.40
2018,06,11,07,58,34.30
2018,06,11,07,59,33.00
2018,06,11,08,00,33.00
2018,06,11,08,01,33.00
2018,06,11,08,02,34.70
2018,06,11,08,03,33.00
2018,06,11,08,04,33.00
2018,06,11,08,05,33.00
2018,06,11,08,06,33.90
2018,06,11,08,07,37.40
2018,06,11,08,08,44.20
2018,06,11,08,09,42.60
2018,06,11,08,10,34.80
2018,06,11,08,11,33.40
2018,06,11,08,12,35.00
2018,06,11,08,13,35.00
2018,06,11,08,14,38.00
2018,06,11,08,15,42.90
2018,06,11,08,16,45.70
2018,06,11,08,17,43.60
2018,06,11,08,18,40.00
2018,06,11,08,19,39.60
2018,06,11,08,20,39.00
2018,06,11,08,21,39.00
2018,06,11,08,22,39.70
2018,06,11,08,23,39.10
2018,06,11,08,24,39.10
2018,06,11,08,25,40.00
2018,06,11,08,26,40.00
2018,06,11,08,27,40.00
2018,06,11,08,28,40.00
2018,06,11,08,29,39.30
2018,06,11,08,30,39.00
2018,06,11,08,31,39.00
2018,06,11,08,32,38.60
2018,06,11,08,33,37.00
2018,06,11,08,34,37.00
2018,06,11,08,35,37.00
2018,06,11,08,36,37.00
2018,06,11,08,37,37.00
2018,06,11,08,38,38.90
2018,06,11,08,39,39.00
2018,06,11,08,40,39.00
2018,06,11,08,41,39.00
2018,06,11,08,42,43.20
2018,06,11,08,43,46.70
2018,06,11,08,44,48.70
2018,06,11,08,45,42.40
2018,06,11,08,46,53.50
2018,06,11,08,47,90.10
2018,06,11,08,48,130.20
2018,06,11,08,49,141.70
2018,06,11,08,50,102.90
2018,06,11,08,51,68.70
2018,06,11,08,52,55.70
2018,06,11,08,53,53.00
2018,06,11,08,54,64.80
2018,06,11,08,55,95.00
2018,06,11,08,56,99.60
2018,06,11,08,57,150.60
2018,06,11,08,58,172.00
2018,06,11,08,59,383.00
2018,06,11,09,00,399.00
2018,06,11,09,01,399.70
2018,06,11,09,02,395.90
2018,06,11,09,03,397.90
2018,06,11,09,04,410.50
2018,06,11,09,05,416.60
2018,06,11,09,06,418.40
2018,06,11,09,07,422.70
2018,06,11,09,08,426.40
2018,06,11,09,09,430.50
2018,06,11,09,10,435.60
2018,06,11,09,11,441.80
2018,06,11,09,12,449.20
2018,06,11,09,13,455.60
2018,06,11,09,14,463.30
2018,06,11,09,15,469.80
2018,06,11,09,16,476.50
2018,06,11,09,17,484.40
2018,06,11,09,18,492.00
2018,06,11,09,19,500.00
2018,06,11,09,20,509.20
2018,06,11,09,21,520.80
2018,06,11,09,22,528.60
2018,06,11,09,23,536.70
2018,06,11,09,24,546.50
2018,06,11,09,25,555.20
2018,06,11,09,26,564.70
2018,06,11,09,27,573.60
2018,06,11,09,28,579.50
2018,06,11,09,29,587.50
2018,06,11,09,30,596.30
2018,06,11,09,31,606.50
2018,06,11,09,32,613.70
2018,06,11,09,33,620.10
2018,06,11,09,34,627.90
2018,06,11,09,35,629.90
2018,06,11,09,36,634.10
2018,06,11,09,37,638.00
2018,06,11,09,38,645.90
2018,06,11,09,39,656.40
2018,06,11,09,40,662.40
2018,06,11,09,41,664.20
2018,06,11,09,42,667.10
2018,06,11,09,43,671.00
2018,06,11,09,44,672.90
2018,06,11,09,45,676.20
2018,06,11,09,46,679.10
2018,06,11,09,47,681.70
2018,06,11,09,48,686.20
2018,06,11,09,49,690.00
2018,06,11,09,50,694.10
2018,06,11,09,51,696.00
2018,06,11,09,52,697.20
2018,06,11,09,53,699.50
2018,06,11,09,54,706.00
2018,06,11,09,55,712.80
2018,06,11,09,56,719.40
2018,06,11,09,57,722.00
2018,06,11,09,58,725.90
2018,06,11,09,59,729.80
2018,06,11,10,00,735.40
2018,06,11,10,01,747.30
2018,06,11,10,02,761.90
2018,06,11,10,03,775.80
2018,06,11,10,04,788.50
2018,06,11,10,05,797.30
2018,06,11,10,06,805.00
2018,06,11,10,07,811.90
2018,06,11,10,08,815.70
2018,06,11,10,09,818.00
2018,06,11,10,10,827.10
2018,06,11,10,11,833.10
2018,06,11,10,12,838.40
2018,06,11,10,13,842.40
2018,06,11,10,14,853.00
2018,06,11,10,15,856.00
2018,06,11,10,16,856.00
2018,06,11,10,17,848.70
2018,06,11,10,18,817.30
2018,06,11,10,19,804.50
2018,06,11,10,20,802.00
2018,06,11,10,21,802.00
2018,06,11,10,22,802.00
2018,06,11,10,23,803.30
2018,06,11,10,24,806.60
2018,06,11,10,25,806.80
2018,06,11,10,26,815.30
2018,06,11,10,27,828.30
2018,06,11,10,28,833.00
2018,06,11,10,29,822.70
2018,06,11,10,30,824.00
2018,06,11,10,31,824.40
2018,06,11,10,32,827.90
2018,06,11,10,33,834.00
2018,06,11,10,34,837.00
2018,06,11,10,35,845.60
2018,06,11,10,36,855.00
2018,06,11,10,37,863.30
2018,06,11,10,38,869.10
2018,06,11,10,39,879.50
2018,06,11,10,40,887.50
2018,06,11,10,41,899.20
2018,06,11,10,42,906.10
2018,06,11,10,43,907.00
2018,06,11,10,44,907.00
2018,06,11,10,45,907.00
2018,06,11,10,46,907.00
2018,06,11,10,47,907.00
2018,06,11,10,48,907.00
2018,06,11,10,49,907.00
2018,06,11,10,50,907.00
2018,06,11,10,51,911.10
2018,06,11,10,52,915.00
2018,06,11,10,53,910.30
2018,06,11,10,54,901.50
2018,06,11,10,55,921.00
2018,06,11,10,56,936.00
2018,06,11,10,57,955.70
2018,06,11,10,58,972.00
2018,06,11,10,59,972.00
2018,06,11,11,00,972.00
2018,06,11,11,01,971.00
2018,06,11,11,02,1009.50
2018,06,11,11,03,1031.30
2018,06,11,11,04,1052.30
2018,06,11,11,05,971.70
2018,06,11,11,06,262.30
2018,06,11,11,07,239.00
2018,06,11,11,08,239.00
2018,06,11,11,09,239.00
2018,06,11,11,10,239.00
2018,06,11,11,11,436.60
2018,06,11,11,12,379.40
2018,06,11,11,13,523.80
2018,06,11,11,14,985.90
2018,06,11,11,15,1031.00
2018,06,11,11,16,1044.00
2018,06,11,11,17,441.10
2018,06,11,11,18,200.00
2018,06,11,11,19,964.40
2018,06,11,11,20,939.50
2018,06,11,11,21,921.70
2018,06,11,11,22,919.00
2018,06,11,11,23,920.20
2018,06,11,11,24,917.40
2018,06,11,11,25,914.30
2018,06,11,11,26,916.00
2018,06,11,11,27,917.10
2018,06,11,11,28,921.70
2018,06,11,11,29,928.80
2018,06,11,11,30,939.20
2018,06,11,11,31,948.80
2018,06,11,11,32,966.30
2018,06,11,11,33,987.10
2018,06,11,11,34,1006.00
2018,06,11,11,35,1023.90
2018,06,11,11,36,1043.50
2018,06,11,11,37,1053.00
2018,06,11,11,38,1053.00
2018,06,11,11,39,393.70
2018,06,11,11,40,368.40
2018,06,11,11,41,1113.00
2018,06,11,11,42,1113.00
2018,06,11,11,43,1113.00
2018,06,11,11,44,1104.70
2018,06,11,11,45,1099.00
2018,06,11,11,46,1099.00
2018,06,11,11,47,1090.80
2018,06,11,11,48,1021.50
2018,06,11,11,49,1006.90
2018,06,11,11,50,997.50
2018,06,11,11,51,984.30
2018,06,11,11,52,964.90
2018,06,11,11,53,954.90
2018,06,11,11,54,961.10
2018,06,11,11,55,970.00
2018,06,11,11,56,973.00
2018,06,11,11,57,968.30
2018,06,11,11,58,957.20
2018,06,11,11,59,956.50
2018,06,11,12,00,953.40
2018,06,11,12,01,946.00
2018,06,11,12,02,944.00
2018,06,11,12,03,944.00
2018,06,11,12,04,945.40
2018,06,11,12,05,947.00
2018,06,11,12,06,951.40
2018,06,11,12,07,953.90
2018,06,11,12,08,958.40
2018,06,11,12,09,963.00
2018,06,11,12,10,965.20
2018,06,11,12,11,973.00
2018,06,11,12,12,980.60
2018,06,11,12,13,988.00
2018,06,11,12,14,990.00
2018,06,11,12,15,992.10
2018,06,11,12,16,1030.40
2018,06,11,12,17,1076.00
2018,06,11,12,18,656.10
2018,06,11,12,19,204.00
2018,06,11,12,20,792.00
2018,06,11,12,21,994.20
2018,06,11,12,22,994.80
2018,06,11,12,23,975.00
2018,06,11,12,24,969.00
2018,06,11,12,25,969.50
2018,06,11,12,26,972.40
2018,06,11,12,27,976.10
2018,06,11,12,28,983.00
2018,06,11,12,29,996.00
2018,06,11,12,30,1004.20
2018,06,11,12,31,1004.00
2018,06,11,12,32,1006.20
2018,06,11,12,33,995.00
2018,06,11,12,34,1000.40
2018,06,11,12,35,1001.00
2018,06,11,12,36,1010.60
2018,06,11,12,37,1027.50
2018,06,11,12,38,1049.70
2018,06,11,12,39,1077.10
2018,06,11,12,40,1088.00
2018,06,11,12,41,1088.00
2018,06,11,12,42,1054.60
2018,06,11,12,43,1049.00
2018,06,11,12,44,1042.40
2018,06,11,12,45,1024.30
2018,06,11,12,46,1032.50
2018,06,11,12,47,1025.60
2018,06,11,12,48,1025.80
2018,06,11,12,49,1033.00
2018,06,11,12,50,1020.60
2018,06,11,12,51,1026.50
2018,06,11,12,52,1028.00
2018,06,11,12,53,1071.70
2018,06,11,12,54,1106.00
2018,06,11,12,55,1106.00
2018,06,11,12,56,1026.30
2018,06,11,12,57,1010.00
2018,06,11,12,58,1000.00
2018,06,11,12,59,990.50
2018,06,11,13,00,987.00
2018,06,11,13,01,985.60
2018,06,11,13,02,981.80
2018,06,11,13,03,982.70
2018,06,11,13,04,982.70
2018,06,11,13,05,979.00
2018,06,11,13,06,979.70
2018,06,11,13,07,981.90
2018,06,11,13,08,986.00
2018,06,11,13,09,991.60
2018,06,11,13,10,999.00
2018,06,11,13,11,1009.20
2018,06,11,13,12,1012.90
2018,06,11,13,13,1002.60
2018,06,11,13,14,991.00
2018,06,11,13,15,994.60
2018,06,11,13,16,997.70
2018,06,11,13,17,999.70
2018,06,11,13,18,1004.60
2018,06,11,13,19,1011.70
2018,06,11,13,20,1013.60
2018,06,11,13,21,1012.00
2018,06,11,13,22,1015.20
2018,06,11,13,23,1008.40
2018,06,11,13,24,994.70
2018,06,11,13,25,995.20
2018,06,11,13,26,998.50
2018,06,11,13,27,1007.00
2018,06,11,13,28,1011.10
2018,06,11,13,29,993.80
2018,06,11,13,30,980.30
2018,06,11,13,31,983.30
2018,06,11,13,32,990.30
2018,06,11,13,33,990.50
2018,06,11,13,34,982.30
2018,06,11,13,35,981.00
2018,06,11,13,36,979.80
2018,06,11,13,37,981.90
2018,06,11,13,38,985.60
2018,06,11,13,39,993.20
2018,06,11,13,40,997.70
2018,06,11,13,41,1005.00
2018,06,11,13,42,1026.50
2018,06,11,13,43,1047.80
2018,06,11,13,44,1024.40
2018,06,11,13,45,1030.90
2018,06,11,13,46,1034.00
2018,06,11,13,47,1023.20
2018,06,11,13,48,988.40
2018,06,11,13,49,982.60
2018,06,11,13,50,978.60
2018,06,11,13,51,981.30
2018,06,11,13,52,973.60
2018,06,11,13,53,963.20
2018,06,11,13,54,962.20
2018,06,11,13,55,962.60
2018,06,11,13,56,962.00
2018,06,11,13,57,962.60
2018,06,11,13,58,962.30
2018,06,11,13,59,960.30
2018,06,11,14,00,960.00
2018,06,11,14,01,960.40
2018,06,11,14,02,961.30
2018,06,11,14,03,959.00
2018,06,11,14,04,958.00
2018,06,11,14,05,958.00
2018,06,11,14,06,956.30
2018,06,11,14,07,955.80
2018,06,11,14,08,954.00
2018,06,11,14,09,953.70
2018,06,11,14,10,953.50
2018,06,11,14,11,954.00
2018,06,11,14,12,953.30
2018,06,11,14,13,953.00
2018,06,11,14,14,951.00
2018,06,11,14,15,950.60
2018,06,11,14,16,950.40
2018,06,11,14,17,953.50
2018,06,11,14,18,954.00
2018,06,11,14,19,958.40
2018,06,11,14,20,956.60
2018,06,11,14,21,953.10
2018,06,11,14,22,953.20
2018,06,11,14,23,957.90
2018,06,11,14,24,967.00
2018,06,11,14,25,972.00
2018,06,11,14,26,975.40
2018,06,11,14,27,970.90
2018,06,11,14,28,970.60
2018,06,11,14,29,989.60
2018,06,11,14,30,1010.40
2018,06,11,14,31,1003.00
2018,06,11,14,32,991.10
2018,06,11,14,33,987.10
2018,06,11,14,34,983.40
2018,06,11,14,35,982.20
2018,06,11,14,36,973.60
2018,06,11,14,37,963.20
2018,06,11,14,38,961.40
2018,06,11,14,39,960.00
2018,06,11,14,40,954.30
2018,06,11,14,41,943.60
2018,06,11,14,42,939.00
2018,06,11,14,43,937.40
2018,06,11,14,44,929.90
2018,06,11,14,45,927.90
2018,06,11,14,46,934.20
2018,06,11,14,47,939.20
2018,06,11,14,48,943.40
2018,06,11,14,49,942.30
2018,06,11,14,50,944.10
2018,06,11,14,51,933.80
2018,06,11,14,52,924.60
2018,06,11,14,53,918.00
2018,06,11,14,54,913.00
2018,06,11,14,55,912.00
2018,06,11,14,56,911.90
2018,06,11,14,57,911.20
2018,06,11,14,58,911.60
2018,06,11,14,59,909.10
2018,06,11,15,00,905.20
2018,06,11,15,01,904.70
2018,06,11,15,02,904.10
2018,06,11,15,03,903.80
2018,06,11,15,04,901.00
2018,06,11,15,05,898.70
2018,06,11,15,06,901.00
2018,06,11,15,07,900.80
2018,06,11,15,08,898.60
2018,06,11,15,09,895.40
2018,06,11,15,10,895.00
2018,06,11,15,11,894.50
2018,06,11,15,12,893.00
2018,06,11,15,13,891.10
2018,06,11,15,14,890.20
2018,06,11,15,15,889.50
2018,06,11,15,16,888.10
2018,06,11,15,17,885.60
2018,06,11,15,18,882.00
2018,06,11,15,19,882.00
2018,06,11,15,20,881.50
2018,06,11,15,21,879.80
2018,06,11,15,22,879.00
2018,06,11,15,23,879.00
2018,06,11,15,24,875.10
2018,06,11,15,25,874.80
2018,06,11,15,26,874.00
2018,06,11,15,27,872.10
2018,06,11,15,28,870.00
2018,06,11,15,29,868.50
2018,06,11,15,30,867.10
2018,06,11,15,31,865.10
2018,06,11,15,32,864.60
2018,06,11,15,33,862.30
2018,06,11,15,34,859.50
2018,06,11,15,35,858.00
2018,06,11,15,36,855.10
2018,06,11,15,37,854.00
2018,06,11,15,38,850.80
2018,06,11,15,39,848.50
2018,06,11,15,40,846.70
2018,06,11,15,41,846.00
2018,06,11,15,42,842.40
2018,06,11,15,43,840.00
2018,06,11,15,44,840.00
2018,06,11,15,45,837.90
2018,06,11,15,46,836.60
2018,06,11,15,47,834.30
2018,06,11,15,48,833.00
2018,06,11,15,49,833.00
2018,06,11,15,50,830.90
2018,06,11,15,51,828.30
2018,06,11,15,52,828.00
2018,06,11,15,53,827.00
2018,06,11,15,54,823.60
2018,06,11,15,55,821.10
2018,06,11,15,56,819.00
2018,06,11,15,57,817.50
2018,06,11,15,58,816.10
2018,06,11,15,59,814.10
2018,06,11,16,00,813.60
2018,06,11,16,01,811.00
2018,06,11,16,02,809.50
2018,06,11,16,03,809.40
2018,06,11,16,04,806.00
2018,06,11,16,05,803.30
2018,06,11,16,06,802.90
2018,06,11,16,07,801.60
2018,06,11,16,08,799.30
2018,06,11,16,09,797.10
2018,06,11,16,10,795.40
2018,06,11,16,11,793.60
2018,06,11,16,12,793.00
2018,06,11,16,13,791.10
2018,06,11,16,14,790.20
2018,06,11,16,15,788.00
2018,06,11,16,16,787.00
2018,06,11,16,17,787.20
2018,06,11,16,18,786.60
2018,06,11,16,19,784.30
2018,06,11,16,20,784.00
2018,06,11,16,21,784.00
2018,06,11,16,22,784.00
2018,06,11,16,23,784.00
2018,06,11,16,24,781.60
2018,06,11,16,25,777.90
2018,06,11,16,26,773.60
2018,06,11,16,27,767.60
2018,06,11,16,28,762.00
2018,06,11,16,29,758.00
2018,06,11,16,30,754.10
2018,06,11,16,31,750.20
2018,06,11,16,32,749.00
2018,06,11,16,33,747.30
2018,06,11,16,34,746.80
2018,06,11,16,35,745.00
2018,06,11,16,36,744.60
2018,06,11,16,37,743.00
2018,06,11,16,38,742.00
2018,06,11,16,39,740.50
2018,06,11,16,40,737.40
2018,06,11,16,41,728.80
2018,06,11,16,42,722.90
2018,06,11,16,43,718.30
2018,06,11,16,44,716.00
2018,06,11,16,45,714.40
2018,06,11,16,46,711.00
2018,06,11,16,47,707.40
2018,06,11,16,48,706.60
2018,06,11,16,49,702.60
2018,06,11,16,50,700.60
2018,06,11,16,51,699.00
2018,06,11,16,52,695.60
2018,06,11,16,53,693.30
2018,06,11,16,54,689.60
2018,06,11,16,55,687.00
2018,06,11,16,56,686.40
2018,06,11,16,57,683.30
2018,06,11,16,58,680.60
2018,06,11,16,59,677.80
2018,06,11,17,00,674.00
2018,06,11,17,01,673.00
2018,06,11,17,02,669.90
2018,06,11,17,03,667.60
2018,06,11,17,04,665.30
2018,06,11,17,05,662.60
2018,06,11,17,06,659.80
2018,06,11,17,07,656.80
2018,06,11,17,08,652.60
2018,06,11,17,09,649.90